Location: Boiro
(42.6475°N, 8.8834°W)
Time: 15:09:37
(UTC+02:00)

Explorer 7 - Pass Details

Date: 01 July 2022
Orbit: 482 x 668 km, 50.3° (Epoch: 15 August)

Event Time Altitude Azimuth Distance (km) Brightness Sun altitude
Rises 04:40:38 0° 294° (WNW) 2,979 10.5 -18.5°
Reaches altitude 10° 04:43:13 10° 304° (WNW) 2,047 9.8 -18.3°
Maximum altitude 04:47:31 34° 9° (N) 1,034 8.8 -17.9°
Drops below altitude 10° 04:51:38 10° 75° (ENE) 1,949 10.3 -17.5°
Sets 04:54:02 0° 85° (E) 2,817 11.0 -17.3°
